Regional Weather Roundup
Issued by NWS Newport/Morehead, NC

Current Version | Previous Version | Text Only | Print | Product List | Glossary On
Versions: 1 2 3 4 5 6 7 8 9 10 11 12 13 14 15 16 17 18 19 20 21 22 23 24 25 26 27 28 29 30 31 32 33 34 35 36 37 38 39 40 41 42 43 44 45 46 47 48 49 50
007
ASUS42 KMHX 240125
RWRMHX
WEATHER ROUNDUP FOR EASTERN NORTH CAROLINA
NATIONAL WEATHER SERVICE NEWPORT/MOREHEAD CITY NC
800 PM EST MON JAN 23 2017

NOTE: "FAIR" INDICATES FEW OR NO CLOUDS BELOW 12,000 FEET
WITH NO SIGNIFICANT WEATHER AND/OR OBSTRUCTIONS TO VISIBILITY

NCZ015>017-031-032-045>047-102-103-240200-
NORTH COAST

CITY           SKY/WX    TMP DP  RH WIND       PRES   REMARKS
EDENTON        CLOUDY    58  54  85 N12       29.28R
ELIZABETH CITY CLOUDY    54  52  93 N9        29.27R
KITTY HAWK     NOT AVBL
MANTEO         LGT RAIN  53  52  96 CALM      29.25R

$$

NCZ045>047-081-094-103-104-240200-
CENTRAL COAST

CITY           SKY/WX    TMP DP  RH WIND       PRES   REMARKS
FRISCO         CLOUDY    55  53  93 W3        29.24R FOG

$$

NCZ095-097-098-100-101-240200-
SOUTHERN COAST

CITY           SKY/WX    TMP DP  RH WIND       PRES   REMARKS
BEAUFORT       LGT RAIN  55  53  93 NW13      29.30R
CEDAR ISLAND   NOT AVBL
JACKSONVILLE   LGT RAIN  53  52  96 CALM      29.31R
PINEY ISLAND   NOT AVBL
WILMINGTON     CLOUDY    52  52 100 NW5       29.34R


$$

NCZ011>013-027>030-043-044-078>080-089-090>093-098-240200-
COASTAL PLAIN

CITY           SKY/WX    TMP DP  RH WIND       PRES   REMARKS
AHOSKIE        DRIZZLE   48  47  94 N9        29.33R
CLINTON        MOCLDY    55  52  88 W3        29.35R
ELIZABETHTOWN  MOCLDY    54  49  83 W6        29.36R
GOLDSBORO      CLOUDY    55  54  95 NW10      29.31R
GREENVILLE     CLOUDY    54  50  87 NW10G16   29.37R
HAVELOCK       LGT RAIN  54  52  93 NW9       29.31R
KENANSVILLE    CLOUDY    52  52 100 SW7       29.33R
KINSTON        CLOUDY    52  52 100 CALM      29.32R
NEW BERN       LGT RAIN  53  51  93 W7        29.31S
RICHLANDS      LGT RAIN  52  51  97 CALM      29.32S
ROCKY MOUNT    CLOUDY    50  47  89 N15       29.34R
WASHINGTON     CLOUDY    55  51  86 SW7         N/A
WHITEVILLE     CLOUDY    54  49  86 W3        29.36R

$$

AMZ130-135-150-152-154-156-158-170-250-252-270-ANZ085-086-088-633-658-670-240200-
MARINE OBSERVATIONS

STATION/POSITION TIME  TEMP    WIND        PRES    WAVE   SWELL
                       AIR SEA DIR/SP/G            HT/PER HT/PER
                 (UTC) (F)     (DEG/KT/KT) (MB)    (FT/S) (FT/S)
CHESAPEAKE LIGHT NOT AVBL
64 E VA BEACH    0050   55 55  270/  6/  8  989.2   13/11  13/11
DUCK             0100   49 46  350/  9/ 12  990.1
2 E DUCK         0100      47                N/A     8/12   5/12
OREGON INLET     0054   52 50  260/  4/  6  989.7
13E OREGON INLT  NOT AVBL
HATTERAS CG      0054   56 57  280/  6/  7  989.8
DIAMOND BUOY     0050   62 76  340/ 10/ 14  989.8    7/11   7/11
CAPE LOOKOUT     0100   55     260/  8/ 10  991.2
BEAUFORT LAB     0100   54 53  290/  6/  7  990.9
30 SE NEW RVR IN 0108   55 68  330/ 19/ 23  992.4
30 SE NEW RVR IN 0113      68                N/A     7/10   3/11
27 SE WRIGHTSVLE 0108   58 67  270/ 19/ 29  991.5
5 SE WRIGHTSVLE  0108   54 54  300/ 14/ 19  993.6
225 S CAPE HAT   0050   69 71  260/ 23/ 29  993.0   14/ 9
41 SE CHARLESTON 0050   61 69  280/ 21/ 27  995.3    8/ 8   5/ 8

$$




USA.gov is the U.S. government's official web portal to all federal, state and local government web resources and services.